This demonstration page uses our WeatherBlox Daily Observations layout. Learn more.

Left ArrowRight Arrow

Hourly Observations for May 24, 2019

Temp ( °F °C ) Dew Point ( °F °C ) Humidity (%) Winds ( mph kmh ) Pressure ( in mb ) Visibility ( mi km ) Precip ( " mm )
12:15 am 00:15 Cloudy with Mist and Fog 51 10.8 51 10.8 100 100 ENE 7 11 29.88 1012 5 8 0.01 0.25
12:35 am 00:35 Cloudy with Mist and Fog 51 10.8 51 10.8 100 100 ENE 10 17 29.86 1011 5 8 0.01 0.25
12:55 am 00:55 Cloudy with Mist and Fog 51 10.8 51 10.8 100 100 ENE 8 13 29.87 1011 3 5 0.01 0.25
1:15 am 01:15 Cloudy with Mist and Fog 51 10.8 51 10.8 100 100 E 6 9 29.87 1011 3 4 N/A
1:35 am 01:35 Cloudy with Light Rain 52 11 52 11 100 100 ENE 3 6 29.86 1011 3 4 N/A
1:55 am 01:55 Cloudy with Light Rain 52 11 52 11 100 100 N N/A 29.85 1011 2 3 0.01 0.25
2:15 am 02:15 Cloudy with Mist and Fog 52 11 52 11 100 100 E 6 9 29.84 1011 2 2 N/A
2:35 am 02:35 Cloudy with Mist and Fog 52 11.1 52 11.1 100 100 N N/A 29.83 1010 2 3 N/A
2:55 am 02:55 Cloudy with Mist and Fog 52 11.2 52 11.2 100 100 WNW 3 6 29.84 1011 2 3 N/A
3:15 am 03:15 Cloudy with Mist and Fog 52 11.1 52 11.1 100 100 W 6 9 29.85 1011 2 3 N/A
3:35 am 03:35 Cloudy with Mist and Fog 52 11 52 11 100 100 WNW 8 13 29.85 1011 2 3 N/A
3:55 am 03:55 Cloudy with Mist and Fog 52 11 52 11 100 100 WNW 8 13 29.86 1011 2 2 N/A
4:15 am 04:15 Cloudy with Mist and Fog 52 11 52 11 100 100 WNW 8 13 29.88 1012 2 2 N/A
4:35 am 04:35 Cloudy with Mist and Fog 51 10.8 51 10.8 100 100 WNW 10 17 29.89 1012 2 3 N/A
4:55 am 04:55 Cloudy with Mist and Fog 51 10.8 51 10.8 100 100 WNW 8 13 29.89 1012 3 4 N/A
5:15 am 05:15 Cloudy 51 10.5 51 10.5 100 100 WNW 9 15 29.89 1012 7 11 N/A
5:35 am 05:35 Cloudy with Mist and Fog 50 10.1 50 10.1 100 100 WNW 7 11 29.89 1012 3 5 N/A
5:55 am 05:55 Cloudy with Mist and Fog 50 10.1 50 10.1 100 100 W 10 17 29.88 1012 5 8 N/A
6:15 am 06:15 Cloudy with Mist and Fog 49 9.6 49 9.6 100 100 WNW 9 15 29.90 1012 1 1 N/A
6:35 am 06:35 Cloudy with Fog 49 9.3 49 9.3 100 100 WNW 7 11 29.90 1012 0 0 N/A
6:55 am 06:55 Cloudy with Fog 48 9 48 9 100 100 W 7 11 29.91 1013 1 1 N/A
7:15 am 07:15 Cloudy with Mist and Fog 48 8.9 48 8.9 100 100 W 6 9 29.91 1013 1 1 N/A
7:35 am 07:35 Partly Cloudy 50 10.1 50 10.1 100 100 W 8 13 29.91 1013 10 16 N/A
7:55 am 07:55 Sunny 51 10.3 51 10.3 100 100 W 10 17 29.92 1013 10 16 N/A
8:15 am 08:15 Partly Cloudy 51 10.8 51 10.6 99 99 W 12 19 29.92 1013 10 16 N/A
8:35 am 08:35 Partly Cloudy 50 10.2 50 10.1 99 99 W 9 15 29.93 1014 10 16 N/A
8:55 am 08:55 Partly Cloudy 52 11.2 52 11 99 99 W 10 17 29.91 1013 10 16 N/A
9:15 am 09:15 Partly Cloudy 53 11.8 52 11 95 95 W 13 20 29.90 1012 10 16 N/A
9:35 am 09:35 Partly Cloudy 55 12.6 53 11.4 92 92 W 14 22 29.89 1012 10 16 N/A
9:55 am 09:55 Sunny 55 12.8 53 11.6 92 92 W 9 15 29.89 1012 10 16 N/A
10:15 am 10:15 Sunny 56 13.6 54 12.2 91 91 W 12 19 29.88 1012 10 16 N/A
10:35 am 10:35 Sunny 57 14.1 53 11.9 87 87 W 9 15 29.89 1012 10 16 N/A
10:55 am 10:55 Sunny 58 14.6 55 12.5 87 87 W 13 20 29.88 1012 10 16 N/A
11:15 am 11:15 Sunny 59 15 55 12.6 86 86 W 9 15 29.89 1012 10 16 N/A
11:35 am 11:35 Sunny 61 16.2 56 13.1 82 82 WSW 9 15 29.89 1012 10 16 N/A
11:55 am 11:55 Sunny 62 16.9 56 13.5 81 81 SW 8 13 29.90 1013 10 16 N/A
12:15 pm 12:15 Sunny 63 17.1 56 13.2 78 78 SW 8 13 29.90 1013 10 16 N/A
12:35 pm 12:35 Sunny 64 18 56 13.4 75 75 SSW 7 11 29.89 1012 10 16 N/A
12:55 pm 12:55 Sunny 65 18.5 55 13 71 71 SSW 8 13 29.87 1012 10 16 N/A
1:15 pm 13:15 Sunny 67 19.3 56 13.4 69 69 SW 9 15 29.85 1011 10 16 N/A
1:35 pm 13:35 Sunny 69 20.3 56 13.2 64 64 SSW 9 15 29.83 1010 10 16 N/A
1:55 pm 13:55 Sunny 69 20.6 55 12.8 61 61 SSE 7 11 29.83 1010 10 16 N/A
2:15 pm 14:15 Sunny 70 21.2 52 11 52 52 S 5 7 29.82 1010 10 16 N/A
2:35 pm 14:35 Sunny 71 21.5 50 10 48 48 S 7 11 29.81 1009 10 16 N/A
2:55 pm 14:55 Sunny 72 22.1 49 9.2 44 44 S 6 9 29.80 1009 10 16 N/A
3:15 pm 15:15 Sunny 72 22.4 47 8.5 41 41 S 7 11 29.79 1009 10 16 N/A
3:35 pm 15:35 Sunny 73 22.9 47 8.1 39 39 S 8 13 29.77 1008 10 16 N/A
3:55 pm 15:55 Sunny 73 23 46 7.5 37 37 SSE 8 13 29.76 1008 10 16 N/A
4:15 pm 16:15 Sunny 73 23 47 8.4 39 39 S 14 22 29.76 1008 10 16 N/A
4:35 pm 16:35 Sunny 74 23.1 46 7.6 37 37 S 10 17 29.75 1008 10 16 N/A
4:55 pm 16:55 Sunny 74 23.3 48 9 40 40 S 13 20 29.74 1007 10 16 N/A
5:15 pm 17:15 Sunny 74 23.2 49 9.4 42 42 S 12 19 29.73 1007 10 16 N/A
5:35 pm 17:35 Sunny 74 23.2 47 8.4 39 39 SSW 8 13 29.73 1007 10 16 N/A
5:55 pm 17:55 Sunny 74 23.1 49 9.5 42 42 S 14 22 29.72 1007 10 16 N/A
6:15 pm 18:15 Sunny 73 23 51 10.4 45 45 S 10 17 29.72 1007 10 16 N/A
6:35 pm 18:35 Sunny 73 23 50 10.1 44 44 S 12 19 29.72 1007 10 16 N/A
6:55 pm 18:55 Sunny 73 23 49 9.7 43 43 S 8 13 29.71 1006 10 16 N/A
7:15 pm 19:15 Sunny 73 22.8 51 10.5 46 46 S 12 19 29.71 1006 10 16 N/A
7:35 pm 19:35 Sunny 73 22.5 50 10.2 46 46 S 10 17 29.73 1007 10 16 N/A
7:55 pm 19:55 Sunny 72 22.1 51 10.5 48 48 S 9 15 29.73 1007 10 16 N/A
8:15 pm 20:15 Sunny 69 20.7 54 12.4 59 59 S 6 9 29.72 1006 10 16 N/A
8:35 pm 20:35 Sunny 67 19.3 54 12.3 64 64 SSE 6 9 29.72 1007 10 16 N/A
8:55 pm 20:55 Clear 65 18.2 54 12.3 69 69 SSE 7 11 29.73 1007 10 16 N/A
9:15 pm 21:15 Clear 63 17 54 12.2 74 74 SE 7 11 29.74 1007 10 16 N/A
9:35 pm 21:35 Clear 62 16.5 54 12 75 75 SSE 7 11 29.76 1008 10 16 N/A
9:55 pm 21:55 Clear 60 15.8 53 11.8 77 77 SSE 8 13 29.77 1008 10 16 N/A
10:15 pm 22:15 Clear 59 15.1 53 11.6 80 80 SSE 8 13 29.78 1008 10 16 N/A
10:35 pm 22:35 Clear 60 15.3 52 11.1 76 76 S 7 11 29.79 1009 10 16 N/A
10:55 pm 22:55 Clear 59 15.1 51 10.8 76 76 SSE 7 11 29.79 1009 10 16 N/A
11:15 pm 23:15 Clear 58 14.5 52 11 80 80 S 6 9 29.80 1009 10 16 N/A
11:35 pm 23:35 Clear 58 14.5 52 11 80 80 S 7 11 29.81 1010 10 16 N/A
11:55 pm 23:55 Clear 58 14.4 53 11.5 83 83 SSE 7 11 29.81 1010 10 16 N/A

Powered by AerisWeather